EN

Hourly Weather Lugovsk

Today, 14 May, Friday

Time Temperature Precipitation Wind Pressure Humidity
00:00 +19°C° 0 mm 2 mps 758 mmHg 47%
01:00 +18°C° 0 mm 2 mps 758 mmHg 48%
02:00 +18°C° 0 mm 2 mps 759 mmHg 48%
03:00 +17°C° 0 mm 2 mps 759 mmHg 48%
04:00 +17°C° 0 mm 2 mps 759 mmHg 49%
05:00 +18°C° 0 mm 2 mps 759 mmHg 49%
06:00 +19°C° 0 mm 2 mps 759 mmHg 49%
07:00 +20°C° 0 mm 2 mps 759 mmHg 49%
08:00 +22°C° 0 mm 3 mps 759 mmHg 44%
09:00 +25°C° 0 mm 4 mps 759 mmHg 40%
10:00 +27°C° 0 mm 4 mps 759 mmHg 36%
11:00 +28°C° 0 mm 5 mps 759 mmHg 33%
12:00 +29°C° 0 mm 5 mps 759 mmHg 30%
13:00 +30°C° 0 mm 5 mps 759 mmHg 28%
14:00 +30°C° 0 mm 5 mps 759 mmHg 27%
15:00 +30°C° 0 mm 5 mps 758 mmHg 26%
16:00 +30°C° 0 mm 5 mps 758 mmHg 26%
17:00 +29°C° 0 mm 4 mps 758 mmHg 32%
18:00 +28°C° 0 mm 3 mps 758 mmHg 37%
19:00 +26°C° 0 mm 2 mps 758 mmHg 43%
20:00 +25°C° 0 mm 2 mps 758 mmHg 44%
21:00 +24°C° 0 mm 2 mps 758 mmHg 44%
22:00 +21°C° 0 mm 2 mps 758 mmHg 45%
23:00 +21°C° 0 mm 2 mps 758 mmHg 45%

Tomorrow, 15 May, Saturday

Time Temperature Precipitation Wind Pressure Humidity
00:00 +20°C° 0 mm 2 mps 758 mmHg 44%
01:00 +21°C° 0 mm 1 mps 758 mmHg 44%
02:00 +19°C° 0 mm 2 mps 758 mmHg 44%
03:00 +19°C° 0 mm 2 mps 758 mmHg 45%
04:00 +18°C° 0 mm 2 mps 758 mmHg 45%
05:00 +19°C° 0 mm 2 mps 758 mmHg 46%
06:00 +20°C° 0 mm 2 mps 758 mmHg 46%
07:00 +21°C° 0 mm 2 mps 758 mmHg 47%
08:00 +24°C° 0 mm 2 mps 758 mmHg 42%
09:00 +26°C° 0 mm 3 mps 758 mmHg 37%
10:00 +28°C° 0 mm 3 mps 758 mmHg 33%
11:00 +29°C° 0 mm 4 mps 758 mmHg 30%
12:00 +30°C° 0 mm 4 mps 758 mmHg 28%
13:00 +32°C° 0 mm 4 mps 758 mmHg 25%
14:00 +32°C° 0 mm 4 mps 758 mmHg 25%
15:00 +32°C° 0 mm 4 mps 757 mmHg 25%
16:00 +31°C° 0 mm 3 mps 757 mmHg 25%
17:00 +30°C° 0 mm 3 mps 757 mmHg 30%
18:00 +29°C° 0 mm 2 mps 757 mmHg 34%
19:00 +28°C° 0 mm 2 mps 757 mmHg 39%
20:00 +26°C° 0 mm 2 mps 756 mmHg 39%
21:00 +25°C° 0 mm 1 mps 756 mmHg 40%
22:00 +23°C° 0 mm 1 mps 756 mmHg 40%
23:00 +23°C° 0 mm 1 mps 756 mmHg 41%

Day after tomorrow, 16 May, Sunday

Time Temperature Precipitation Wind Pressure Humidity
00:00 +22°C° 0 mm 1 mps 756 mmHg 42%
01:00 +22°C° 0 mm 1 mps 756 mmHg 44%
02:00 +21°C° 0 mm 1 mps 756 mmHg 44%
03:00 +21°C° 0 mm 1 mps 756 mmHg 45%
04:00 +20°C° 0 mm 1 mps 756 mmHg 45%
05:00 +21°C° 0 mm 1 mps 756 mmHg 45%
06:00 +22°C° 0 mm 1 mps 757 mmHg 45%
07:00 +23°C° 0 mm 2 mps 757 mmHg 45%
08:00 +25°C° 0 mm 2 mps 757 mmHg 41%
09:00 +27°C° 0 mm 3 mps 756 mmHg 38%
10:00 +29°C° 0 mm 3 mps 756 mmHg 34%
11:00 +30°C° 0 mm 4 mps 756 mmHg 31%
12:00 +32°C° 0 mm 4 mps 756 mmHg 28%
13:00 +33°C° 0 mm 4 mps 756 mmHg 26%
14:00 +33°C° 0 mm 4 mps 756 mmHg 25%
15:00 +33°C° 0 mm 4 mps 756 mmHg 24%
16:00 +34°C° 0 mm 3 mps 755 mmHg 23%
17:00 +31°C° 0 mm 3 mps 755 mmHg 28%
18:00 +30°C° 0 mm 2 mps 755 mmHg 32%
19:00 +29°C° 0 mm 2 mps 755 mmHg 37%
20:00 +28°C° 0 mm 2 mps 755 mmHg 38%
21:00 +26°C° 0 mm 2 mps 755 mmHg 40%
22:00 +25°C° 0 mm 2 mps 755 mmHg 41%
23:00 +24°C° 0 mm 2 mps 755 mmHg 43%

17 May, Monday

Time Temperature Precipitation Wind Pressure Humidity
00:00 +24°C° 0 mm 2 mps 755 mmHg 45%
01:00 +23°C° 0 mm 2 mps 755 mmHg 46%
02:00 +23°C° 0 mm 2 mps 755 mmHg 46%
03:00 +21°C° 0 mm 2 mps 755 mmHg 46%
04:00 +21°C° 0 mm 2 mps 755 mmHg 46%
05:00 +23°C° 0 mm 2 mps 755 mmHg 48%
06:00 +23°C° 0 mm 2 mps 756 mmHg 50%
07:00 +24°C° 0 mm 2 mps 756 mmHg 52%
08:00 +26°C° 0 mm 2 mps 756 mmHg 47%
09:00 +27°C° 0 mm 2 mps 756 mmHg 43%
10:00 +29°C° 0 mm 3 mps 756 mmHg 38%
11:00 +30°C° 0 mm 3 mps 756 mmHg 36%
12:00 +31°C° 0 mm 3 mps 755 mmHg 34%
13:00 +33°C° 0 mm 3 mps 755 mmHg 32%
14:00 +32°C° 0 mm 2 mps 755 mmHg 30%
15:00 +32°C° 0 mm 2 mps 755 mmHg 29%
16:00 +32°C° 0 mm 2 mps 755 mmHg 27%
17:00 +31°C° 0 mm 2 mps 754 mmHg 32%
18:00 +30°C° 0 mm 2 mps 754 mmHg 37%
19:00 +29°C° 0 mm 2 mps 754 mmHg 42%
20:00 +27°C° 0 mm 2 mps 754 mmHg 47%
21:00 +25°C° 0 mm 2 mps 754 mmHg 52%
22:00 +23°C° 0 mm 1 mps 755 mmHg 57%
23:00 +21°C° 0 mm 2 mps 755 mmHg 59%

18 May, Tuesday

Time Temperature Precipitation Wind Pressure Humidity
00:00 +21°C° 0 mm 2 mps 755 mmHg 60%
01:00 +20°C° 0 mm 3 mps 755 mmHg 61%
02:00 +20°C° 0 mm 3 mps 755 mmHg 62%
03:00 +20°C° 0 mm 2 mps 754 mmHg 63%
04:00 +20°C° 0 mm 2 mps 754 mmHg 63%
05:00 +22°C° 0 mm 1 mps 754 mmHg 60%
06:00 +23°C° 0 mm 1 mps 754 mmHg 57%
07:00 +24°C° 0 mm 1 mps 754 mmHg 54%
08:00 +26°C° 0 mm 1 mps 754 mmHg 49%
09:00 +28°C° 0 mm 1 mps 754 mmHg 43%
10:00 +28°C° 0 mm 0 mps 754 mmHg 38%
11:00 +29°C° 0 mm 0 mps 754 mmHg 33%
12:00 +30°C° 0 mm 0 mps 754 mmHg 28%
13:00 +31°C° 0 mm 0 mps 754 mmHg 23%
14:00 +33°C° 0 mm 1 mps 753 mmHg 22%
15:00 +33°C° 0 mm 1 mps 753 mmHg 21%
16:00 +33°C° 0 mm 1 mps 753 mmHg 21%
17:00 +32°C° 0 mm 1 mps 753 mmHg 25%
18:00 +31°C° 0 mm 1 mps 753 mmHg 29%
19:00 +29°C° 0 mm 1 mps 752 mmHg 34%
20:00 +28°C° 0 mm 1 mps 753 mmHg 36%
21:00 +26°C° 0 mm 1 mps 753 mmHg 38%
22:00 +25°C° 0 mm 1 mps 753 mmHg 40%
23:00 +24°C° 0 mm 2 mps 753 mmHg 45%

19 May, Wednesday

Time Temperature Precipitation Wind Pressure Humidity
00:00 +23°C° 0 mm 2 mps 753 mmHg 51%
01:00 +22°C° 0 mm 3 mps 753 mmHg 56%
02:00 +21°C° 0 mm 2 mps 753 mmHg 58%
03:00 +21°C° 0 mm 2 mps 753 mmHg 60%
04:00 +20°C° 0 mm 2 mps 753 mmHg 62%
05:00 +21°C° 0 mm 2 mps 753 mmHg 60%
06:00 +23°C° 0 mm 2 mps 753 mmHg 57%
07:00 +24°C° 0 mm 1 mps 754 mmHg 54%
08:00 +26°C° 0 mm 2 mps 754 mmHg 50%
09:00 +28°C° 0 mm 2 mps 754 mmHg 46%
10:00 +29°C° 0 mm 2 mps 754 mmHg 41%
11:00 +30°C° 0 mm 2 mps 753 mmHg 37%
12:00 +31°C° 0 mm 2 mps 753 mmHg 33%
13:00 +32°C° 0 mm 2 mps 753 mmHg 29%
14:00 +32°C° 0 mm 2 mps 753 mmHg 27%
15:00 +33°C° 0 mm 1 mps 753 mmHg 26%
16:00 +33°C° 0 mm 1 mps 753 mmHg 24%
17:00 +31°C° 0 mm 2 mps 753 mmHg 32%
18:00 +29°C° 0 mm 3 mps 753 mmHg 41%
19:00 +27°C° 0 mm 3 mps 753 mmHg 49%
20:00 +26°C° 0 mm 3 mps 753 mmHg 50%
21:00 +25°C° 0 mm 3 mps 754 mmHg 52%
22:00 +24°C° 0 mm 3 mps 754 mmHg 53%
23:00 +22°C° 0 mm 3 mps 754 mmHg 60%
Show more